MEASAT-3B (40147 NORAD) Tracking and Keplerian Element Data

This shows tracking and keplerian element data for the satellite.

Feedback or suggestion? Click here.




ElementValue
Catalog40147
NameMEASAT-3B
Epoch Orbit1540
Epoch Day320.59130547
Epoch Year2018
RAAN57.6828
Inclination0.0461
Eccentricity0.0001315
Argument of Perigee235.8973
Mean Anonmoly66.4368
Mean Motion1.0027196
Decay Rate-2.38E-06
L11 40147U 14054B 18320.59130547 -.00000238 00000-0 00000+0 0 9991
L22 40147 0.0461 57.6828 0001315 235.8973 66.4368 1.00271960 15401

Live tracking and technical data element details for MEASAT-3B (NORAD 40147). MEASAT-3B can be tracked NOW for your location showing map with azimuth and elevation plus other details from your city location.

Track the satellite on the map from your city or location and see movement details for azimuth, elevation, latitude, longitude, range, height, and movement on the map or in text.







IsCatalogInMostPopularTable: catalog: 40147, numindb: 108
Update: records affected: 1



GetName: 40147 MEASAT-3B

Hit Count: updated at: Sun, 18 Nov 2018 01:56:13 GMT